DW0465 Weather Reports


Display with metric or nautical units.
time (UTC)temp
F
wind
direction
speed
MPH
gust
MPH
rain 1hr
in
rain 24hr
in
rain mn
in
humidity
%
barometer
mb
20240301003043 47 161 0.0 5.0 0.00 0.00 0.00 48 1005.3
20240301001543 48 236 1.0 3.0 0.00 0.00 0.00 43 1005.6
20240301000038 48 241 1.0 6.0 0.00 0.00 0.00 42 1005.8
20240229234538 48 288 0.0 3.0 0.00 0.00 0.00 42 1005.7
20240229233049 47 170 1.0 4.0 0.00 0.00 0.00 47 1005.8
20240229231533 48 150 1.0 9.0 0.00 0.00 0.00 46 1005.8
20240229230030 48 134 1.0 9.0 0.00 0.00 0.00 47 1006.0
20240229224528 47 161 2.0 11.0 0.00 0.00 0.00 47 1006.2
20240229223027 46 142 1.0 9.0 0.00 0.00 0.00 48 1006.5
20240229221522 46 166 5.0 10.0 0.00 0.00 0.00 48 1006.7
20240229220041 45 156 3.0 11.0 0.00 0.00 0.00 50 1006.9
20240229214515 44 135 1.0 6.0 0.00 0.00 0.00 49 1007.0
20240229213013 43 149 1.0 7.0 0.00 0.00 0.00 53 1007.2
20240229211510 42 153 1.0 10.0 0.00 0.00 0.00 53 1007.4
20240229210014 42 147 1.0 6.0 0.00 0.00 0.00 53 1007.6
20240229204605 42 145 2.0 14.0 0.00 0.00 0.00 52 1007.9
20240229203007 43 126 10.0 15.0 0.00 0.00 0.00 50 1008.0
20240229201502 41 144 0.0 7.0 0.00 0.00 0.00 51 1008.6
20240229200101 41 144 1.0 4.0 0.00 0.00 0.00 50 1009.1
20240229194556 42 155 5.0 13.0 0.00 0.00 0.00 48 1009.4
20240229193058 43 159 1.0 6.0 0.00 0.00 0.00 45 1009.9
20240229191552 43 135 0.0 3.0 0.00 0.00 0.00 46 1010.1
20240229190050 42 157 1.0 3.0 0.00 0.00 0.00 45 1010.4
20240229184549 41 167 0.0 2.0 0.00 0.01 0.00 48 1010.2
20240229183048 41 178 1.0 10.0 0.00 0.01 0.00 49 1010.3
20240229181547 41 146 1.0 10.0 0.00 0.01 0.00 47 1010.5
20240229180053 41 132 4.0 13.0 0.00 0.01 0.00 46 1010.6
20240229174555 42 163 1.0 14.0 0.00 0.01 0.00 45 1010.9
20240229173040 43 150 1.0 8.0 0.00 0.01 0.00 44 1011.2
20240229171546 42 196 4.0 12.0 0.00 0.01 0.00 43 1011.5
20240229170038 43 188 0.0 7.0 0.00 0.01 0.00 40 1011.8
20240229164532 42 150 1.0 5.0 0.00 0.01 0.00 43 1012.0
20240229163028 40 190 0.0 4.0 0.00 0.01 0.00 48 1012.0
20240229161529 39 175 0.0 7.0 0.00 0.01 0.00 50 1012.2
20240229160021 38 153 1.0 4.0 0.00 0.01 0.00 50 1012.5
20240229154516 36 135 0.0 5.0 0.00 0.01 0.00 52 1013.1
20240229153013 35 99 0.0 2.0 0.00 0.01 0.00 55 1013.0
20240229151508 34 189 0.0 2.0 0.00 0.01 0.00 58 1013.6
20240229150004 32 192 0.0 2.0 0.00 0.01 0.00 60 1013.9
20240229144600 30 206 0.0 6.0 0.00 0.01 0.00 62 1013.8
20240229143055 30 140 3.0 9.0 0.00 0.01 0.00 63 1013.9
20240229141551 28 220 0.0 2.0 0.00 0.01 0.00 66 1014.4
20240229140049 28 53 1.0 5.0 0.00 0.01 0.00 67 1014.5
20240229134546 29 167 0.0 4.0 0.00 0.01 0.00 64 1014.6
20240229133047 28 165 1.0 6.0 0.00 0.01 0.00 66 1015.0
20240229131541 28 61 0.0 1.0 0.00 0.01 0.00 67 1015.1
20240229130040 29 163 1.0 8.0 0.00 0.01 0.00 66 1015.0
20240229124539 25 212 0.0 3.0 0.00 0.01 0.00 75 1015.3
20240229123039 25 175 0.0 1.0 0.00 0.01 0.00 78 1015.3
20240229121536 23 355 0.0 1.0 0.00 0.01 0.00 80 1015.5
20240229120035 23 155 1.0 7.0 0.00 0.01 0.00 80 1015.6
20240229114539 24 165 0.0 0.0 0.00 0.01 0.00 79 1015.8
20240229113032 24 205 0.0 0.0 0.00 0.01 0.00 78 1016.2
20240229111526 25 206 0.0 4.0 0.00 0.01 0.00 77 1016.4
20240229110024 25 175 0.0 0.0 0.00 0.01 0.00 77 1016.6
20240229104530 25 175 0.0 0.0 0.00 0.01 0.00 76 1017.0
20240229103020 25 134 0.0 0.0 0.00 0.01 0.00 77 1017.2
20240229101521 25 131 0.0 0.0 0.00 0.01 0.00 77 1017.6
20240229100021 25 130 0.0 0.0 0.00 0.01 0.00 76 1017.8
20240229094514 25 130 0.0 0.0 0.00 0.01 0.00 75 1017.9
20240229093023 25 34 0.0 0.0 0.00 0.01 0.00 75 1018.2
20240229091513 26 34 0.0 0.0 0.00 0.01 0.00 73 1018.4
20240229090008 26 26 0.0 0.0 0.00 0.01 0.00 72 1018.7
20240229084506 26 20 0.0 0.0 0.00 0.01 0.00 71 1019.0
20240229083004 27 63 0.0 1.0 0.00 0.01 0.00 70 1018.9
20240229081503 27 49 0.0 1.0 0.00 0.01 0.00 68 1019.1
20240229080003 29 28 0.0 5.0 0.00 0.01 0.00 65 1019.4
20240229074559 28 121 5.0 10.0 0.00 0.01 0.00 66 1019.3
20240229073056 27 190 0.0 2.0 0.00 0.01 0.00 68 1019.5
20240229071554 27 189 0.0 0.0 0.00 0.01 0.00 68 1019.7
20240229070051 28 331 0.0 3.0 0.00 0.01 0.00 65 1019.8
20240229064553 30 153 0.0 9.0 0.00 0.01 0.01 59 1019.7
20240229063053 31 146 1.0 11.0 0.00 0.01 0.01 57 1020.0
20240229061540 31 140 3.0 11.0 0.00 0.01 0.01 57 1019.9
20240229060036 30 157 3.0 9.0 0.00 0.01 0.01 61 1020.2
20240229054531 29 119 0.0 4.0 0.00 0.01 0.01 65 1020.4
20240229053032 30 136 5.0 10.0 0.00 0.01 0.01 64 1020.4
20240229051520 27 110 0.0 4.0 0.00 0.01 0.01 73 1020.7
20240229050017 26 19 0.0 0.0 0.00 0.01 0.01 75 1020.8
20240229044518 28 360 0.0 4.0 0.00 0.01 0.01 72 1020.8
20240229043007 29 258 0.0 5.0 0.00 0.01 0.01 68 1020.6
20240229041503 29 173 0.0 7.0 0.00 0.01 0.01 70 1020.7
20240229040059 28 130 0.0 0.0 0.00 0.01 0.01 71 1020.9
20240229034555 29 127 0.0 0.0 0.00 0.01 0.01 70 1020.9
20240229033049 29 177 2.0 6.0 0.00 0.01 0.01 71 1020.8
20240229031545 27 128 1.0 8.0 0.00 0.01 0.01 73 1020.8
20240229030040 27 184 1.0 5.0 0.00 0.01 0.01 75 1020.9
20240229024536 26 176 1.0 5.0 0.00 0.01 0.01 77 1021.0
20240229023038 27 116 0.0 0.0 0.00 0.01 0.01 76 1021.2
20240229021534 28 119 0.0 0.0 0.00 0.01 0.01 74 1021.4
20240229020022 29 118 0.0 0.0 0.00 0.01 0.01 72 1021.3
20240229014522 30 263 0.0 1.0 0.00 0.01 0.01 70 1021.2
20240229013014 31 264 0.0 2.0 0.00 0.01 0.01 67 1021.4
20240229011508 32 19 0.0 0.0 0.00 0.01 0.01 65 1021.6
20240229010004 33 19 0.0 3.0 0.00 0.01 0.01 59 1021.5
20240229004606 35 29 0.0 0.0 0.00 0.01 0.01 57 1021.7